| time (UTC) | temp C | wind direction | speed KPH | gust KPH | rain 1hr cm | rain 24hr cm | rain mn cm | humidity % | barometer mb |
| 20260505084147 | 16 | 156 | 1.6 | 4.8 | 0.00 | 0.00 | 0.00 | 71 | 1005.6 |
| 20260505083507 | 16 | 159 | 3.2 | 4.8 | 0.00 | 0.00 | 0.00 | 71 | 1005.6 |
| 20260505082827 | 16 | 109 | 1.6 | 4.8 | 0.00 | 0.00 | 0.00 | 71 | 1005.6 |
| 20260505082147 | 16 | 50 | 3.2 | 4.8 | 0.00 | 0.00 | 0.00 | 71 | 1005.3 |
| 20260505081507 | 16 | 55 | 3.2 | 3.2 | 0.00 | 0.00 | 0.00 | 70 | 1005.6 |
| 20260505080827 | 16 | 84 | 1.6 | 3.2 | 0.00 | 0.00 | 0.00 | 68 | 1005.3 |
| 20260505080147 | 16 | 129 | 1.6 | 3.2 | 0.00 | 0.00 | 0.00 | 67 | 1005.6 |
| 20260505075718 | 17 | 187 | 1.6 | 4.8 | 0.00 | 0.00 | 0.00 | 66 | 1006.0 |
| 20260505074827 | 17 | 184 | 1.6 | 9.7 | 0.00 | 0.00 | 0.00 | 64 | 1006.0 |
| 20260505074612 | 17 | 238 | 3.2 | 11.3 | 0.00 | 0.00 | 0.00 | 64 | 1006.0 |
| 20260505073507 | 17 | 214 | 6.4 | 11.3 | 0.00 | 0.00 | 0.00 | 64 | 1005.6 |
| 20260505073041 | 17 | 220 | 8.0 | 12.9 | 0.00 | 0.00 | 0.00 | 64 | 1006.0 |
| 20260505072356 | 17 | 233 | 4.8 | 12.9 | 0.00 | 0.00 | 0.00 | 64 | 1006.0 |
| 20260505071507 | 17 | 217 | 8.0 | 11.3 | 0.00 | 0.00 | 0.00 | 64 | 1006.0 |
| 20260505071038 | 17 | 237 | 4.8 | 12.9 | 0.00 | 0.00 | 0.00 | 64 | 1006.0 |
| 20260505070611 | 17 | 225 | 6.4 | 11.3 | 0.00 | 0.00 | 0.00 | 64 | 1006.0 |
| 20260505065932 | 17 | 223 | 4.8 | 12.9 | 0.00 | 0.00 | 0.00 | 65 | 1006.0 |
| 20260505064827 | 17 | 236 | 4.8 | 11.3 | 0.00 | 0.00 | 0.00 | 65 | 1006.0 |
| 20260505064147 | 17 | 218 | 4.8 | 9.7 | 0.00 | 0.00 | 0.00 | 65 | 1006.0 |
| 20260505063507 | 17 | 212 | 6.4 | 11.3 | 0.00 | 0.00 | 0.00 | 65 | 1006.0 |
| 20260505062827 | 17 | 202 | 4.8 | 12.9 | 0.00 | 0.00 | 0.00 | 65 | 1006.3 |
| 20260505062147 | 17 | 210 | 6.4 | 11.3 | 0.00 | 0.00 | 0.00 | 65 | 1006.0 |
| 20260505061507 | 17 | 210 | 6.4 | 9.7 | 0.00 | 0.00 | 0.00 | 66 | 1006.3 |
| 20260505060827 | 17 | 198 | 4.8 | 9.7 | 0.00 | 0.00 | 0.00 | 65 | 1006.3 |
| 20260505060147 | 17 | 193 | 6.4 | 9.7 | 0.00 | 0.00 | 0.00 | 64 | 1006.7 |
| 20260505055507 | 17 | 198 | 4.8 | 9.7 | 0.00 | 0.00 | 0.00 | 64 | 1007.0 |
| 20260505055040 | 17 | 193 | 4.8 | 9.7 | 0.00 | 0.00 | 0.00 | 64 | 1007.0 |
| 20260505054147 | 17 | 191 | 6.4 | 9.7 | 0.00 | 0.00 | 0.00 | 63 | 1007.0 |
| 20260505053507 | 17 | 191 | 4.8 | 12.9 | 0.00 | 0.00 | 0.00 | 63 | 1007.0 |
| 20260505052827 | 17 | 188 | 6.4 | 11.3 | 0.00 | 0.00 | 0.00 | 62 | 1007.0 |
| 20260505052147 | 17 | 195 | 8.0 | 9.7 | 0.00 | 0.00 | 0.00 | 61 | 1007.0 |
| 20260505051931 | 18 | 205 | 4.8 | 9.7 | 0.00 | 0.00 | 0.00 | 60 | 1007.0 |
| 20260505051252 | 18 | 212 | 8.0 | 16.1 | 0.00 | 0.00 | 0.00 | 60 | 1007.4 |
| 20260505050147 | 18 | 220 | 8.0 | 16.1 | 0.00 | 0.00 | 0.00 | 59 | 1007.4 |
| 20260505041507 | 18 | 224 | 6.4 | 12.9 | 0.00 | 0.00 | 0.00 | 57 | 1007.7 |
| 20260505040827 | 18 | 228 | 6.4 | 16.1 | 0.00 | 0.00 | 0.00 | 57 | 1007.7 |
| 20260505040400 | 18 | 228 | 9.7 | 14.5 | 0.00 | 0.00 | 0.00 | 57 | 1007.7 |
| 20260505035721 | 18 | 228 | 6.4 | 14.5 | 0.00 | 0.00 | 0.00 | 57 | 1007.7 |
| 20260505034827 | 19 | 249 | 4.8 | 17.7 | 0.00 | 0.00 | 0.00 | 56 | 1008.1 |
| 20260505034610 | 19 | 224 | 4.8 | 17.7 | 0.00 | 0.00 | 0.00 | 56 | 1008.1 |
| 20260505033507 | 19 | 248 | 4.8 | 16.1 | 0.00 | 0.00 | 0.00 | 55 | 1008.1 |
| 20260505032827 | 20 | 233 | 8.0 | 19.3 | 0.00 | 0.00 | 0.00 | 54 | 1008.1 |
| 20260505032359 | 20 | 235 | 9.7 | 19.3 | 0.00 | 0.00 | 0.00 | 54 | 1008.1 |
| 20260505031507 | 20 | 231 | 9.7 | 19.3 | 0.00 | 0.00 | 0.00 | 53 | 1008.1 |
| 20260505030827 | 20 | 226 | 11.3 | 19.3 | 0.00 | 0.00 | 0.00 | 53 | 1007.7 |
| 20260505030147 | 20 | 223 | 11.3 | 17.7 | 0.00 | 0.00 | 0.00 | 52 | 1007.7 |
| 20260505025507 | 20 | 226 | 12.9 | 19.3 | 0.00 | 0.00 | 0.00 | 52 | 1007.7 |
| 20260505024827 | 20 | 229 | 9.7 | 19.3 | 0.00 | 0.00 | 0.00 | 52 | 1007.7 |
| 20260505024147 | 20 | 222 | 8.0 | 20.9 | 0.00 | 0.00 | 0.00 | 52 | 1007.7 |
| 20260505023718 | 20 | 215 | 11.3 | 16.1 | 0.00 | 0.00 | 0.00 | 51 | 1007.4 |
| 20260505022827 | 20 | 211 | 9.7 | 16.1 | 0.00 | 0.00 | 0.00 | 51 | 1007.4 |
| 20260505022147 | 20 | 233 | 6.4 | 14.5 | 0.00 | 0.00 | 0.00 | 51 | 1007.4 |
| 20260505021720 | 20 | 230 | 8.0 | 12.9 | 0.00 | 0.00 | 0.00 | 50 | 1007.0 |
| 20260505020827 | 20 | 232 | 6.4 | 19.3 | 0.00 | 0.00 | 0.00 | 50 | 1007.0 |
| 20260505020147 | 21 | 237 | 9.7 | 19.3 | 0.00 | 0.00 | 0.00 | 49 | 1007.0 |
| 20260505015507 | 21 | 225 | 6.4 | 16.1 | 0.00 | 0.00 | 0.00 | 49 | 1006.7 |
| 20260505015038 | 21 | 220 | 8.0 | 17.7 | 0.00 | 0.00 | 0.00 | 49 | 1006.7 |
| 20260505014147 | 21 | 219 | 8.0 | 16.1 | 0.00 | 0.00 | 0.00 | 48 | 1006.3 |
| 20260505013507 | 21 | 213 | 9.7 | 16.1 | 0.00 | 0.00 | 0.00 | 47 | 1006.7 |
| 20260505012827 | 21 | 211 | 9.7 | 14.5 | 0.00 | 0.00 | 0.00 | 46 | 1006.3 |
| 20260505012147 | 22 | 227 | 8.0 | 20.9 | 0.00 | 0.00 | 0.00 | 46 | 1006.3 |
| 20260505011507 | 22 | 224 | 11.3 | 22.5 | 0.00 | 0.00 | 0.00 | 45 | 1006.3 |
| 20260505011037 | 22 | 236 | 9.7 | 22.5 | 0.00 | 0.00 | 0.00 | 45 | 1006.3 |
| 20260505010147 | 22 | 227 | 8.0 | 29.0 | 0.00 | 0.00 | 0.00 | 45 | 1006.3 |
| 20260505005507 | 22 | 229 | 9.7 | 19.3 | 0.00 | 0.00 | 0.00 | 44 | 1006.3 |
| 20260505005252 | 22 | 231 | 11.3 | 24.1 | 0.00 | 0.00 | 0.00 | 44 | 1006.3 |
| 20260505004147 | 23 | 224 | 11.3 | 24.1 | 0.00 | 0.00 | 0.00 | 43 | 1006.3 |
| 20260505003507 | 23 | 227 | 12.9 | 22.5 | 0.00 | 0.00 | 0.00 | 42 | 1006.3 |
| 20260505002827 | 23 | 222 | 12.9 | 22.5 | 0.00 | 0.00 | 0.00 | 41 | 1006.3 |
| 20260505002147 | 23 | 235 | 12.9 | 24.1 | 0.00 | 0.00 | 0.00 | 41 | 1006.3 |
| 20260505001716 | 23 | 237 | 8.0 | 30.6 | 0.00 | 0.00 | 0.00 | 41 | 1006.3 |
| 20260505001250 | 24 | 230 | 11.3 | 32.2 | 0.00 | 0.00 | 0.00 | 40 | 1006.0 |
| 20260505000147 | 24 | 216 | 20.9 | 32.2 | 0.00 | 0.00 | 0.00 | 39 | 1006.0 |
| 20260504235507 | 24 | 226 | 20.9 | 32.2 | 0.00 | 0.00 | 0.00 | 38 | 1006.0 |
| 20260504234827 | 25 | 240 | 12.9 | 33.8 | 0.00 | 0.00 | 0.00 | 39 | 1006.0 |
| 20260504234147 | 25 | 234 | 14.5 | 33.8 | 0.00 | 0.00 | 0.00 | 38 | 1006.0 |
| 20260504233507 | 25 | 248 | 11.3 | 30.6 | 0.00 | 0.00 | 0.00 | 37 | 1006.0 |
| 20260504233036 | 25 | 247 | 9.7 | 33.8 | 0.00 | 0.00 | 0.00 | 36 | 1006.3 |
| 20260504232147 | 25 | 221 | 17.7 | 33.8 | 0.00 | 0.00 | 0.00 | 37 | 1006.3 |
| 20260504231507 | 25 | 216 | 19.3 | 32.2 | 0.00 | 0.00 | 0.00 | 36 | 1006.3 |
| 20260504230827 | 25 | 251 | 14.5 | 32.2 | 0.00 | 0.00 | 0.00 | 36 | 1006.3 |
| 20260504230147 | 25 | 234 | 17.7 | 32.2 | 0.00 | 0.00 | 0.00 | 36 | 1006.3 |
| 20260504225507 | 25 | 221 | 19.3 | 29.0 | 0.00 | 0.00 | 0.00 | 36 | 1006.3 |
| 20260504225040 | 26 | 258 | 8.0 | 35.4 | 0.00 | 0.00 | 0.00 | 35 | 1006.3 |
| 20260504224147 | 25 | 236 | 16.1 | 35.4 | 0.00 | 0.00 | 0.00 | 36 | 1006.3 |
| 20260504223507 | 25 | 236 | 17.7 | 32.2 | 0.00 | 0.00 | 0.00 | 35 | 1006.3 |
| 20260504222827 | 25 | 231 | 16.1 | 32.2 | 0.00 | 0.00 | 0.00 | 36 | 1006.3 |
| 20260504222147 | 26 | 229 | 19.3 | 37.0 | 0.00 | 0.00 | 0.00 | 35 | 1006.3 |
| 20260504221507 | 26 | 230 | 12.9 | 27.4 | 0.00 | 0.00 | 0.00 | 36 | 1006.3 |
| 20260504220827 | 26 | 247 | 9.7 | 33.8 | 0.00 | 0.00 | 0.00 | 35 | 1006.3 |
| 20260504220359 | 26 | 221 | 17.7 | 32.2 | 0.00 | 0.00 | 0.00 | 36 | 1006.3 |
| 20260504215507 | 26 | 239 | 19.3 | 37.0 | 0.00 | 0.00 | 0.00 | 35 | 1006.7 |
| 20260504215041 | 26 | 244 | 12.9 | 37.0 | 0.00 | 0.00 | 0.00 | 35 | 1006.7 |
| 20260504214147 | 26 | 258 | 11.3 | 38.6 | 0.00 | 0.00 | 0.00 | 36 | 1006.7 |
| 20260504213507 | 26 | 243 | 11.3 | 38.6 | 0.00 | 0.00 | 0.00 | 36 | 1006.7 |
| 20260504212827 | 26 | 231 | 14.5 | 35.4 | 0.00 | 0.00 | 0.00 | 34 | 1006.7 |
| 20260504212147 | 26 | 232 | 19.3 | 35.4 | 0.00 | 0.00 | 0.00 | 34 | 1006.7 |
| 20260504211507 | 26 | 255 | 12.9 | 37.0 | 0.00 | 0.00 | 0.00 | 34 | 1006.7 |
| 20260504210827 | 26 | 244 | 17.7 | 37.0 | 0.00 | 0.00 | 0.00 | 34 | 1006.7 |
| 20260504210147 | 26 | 246 | 12.9 | 30.6 | 0.00 | 0.00 | 0.00 | 34 | 1007.0 |
| 20260504205507 | 26 | 254 | 16.1 | 38.6 | 0.00 | 0.00 | 0.00 | 34 | 1007.0 |
| 20260504204827 | 26 | 229 | 24.1 | 38.6 | 0.00 | 0.00 | 0.00 | 34 | 1007.0 |
| 20260504204146 | 26 | 225 | 16.1 | 35.4 | 0.00 | 0.00 | 0.00 | 34 | 1007.0 |
| 20260504203507 | 26 | 249 | 16.1 | 32.2 | 0.00 | 0.00 | 0.00 | 35 | 1007.0 |
| 20260504202826 | 26 | 243 | 14.5 | 38.6 | 0.00 | 0.00 | 0.00 | 34 | 1007.4 |
| 20260504202612 | 26 | 259 | 20.9 | 38.6 | 0.00 | 0.00 | 0.00 | 34 | 1007.4 |
| 20260504201506 | 26 | 262 | 12.9 | 35.4 | 0.00 | 0.00 | 0.00 | 34 | 1007.4 |
| 20260504200826 | 26 | 223 | 22.5 | 35.4 | 0.00 | 0.00 | 0.00 | 34 | 1007.4 |
| 20260504200146 | 26 | 268 | 11.3 | 25.7 | 0.00 | 0.00 | 0.00 | 34 | 1007.4 |
| 20260504195506 | 26 | 251 | 9.7 | 41.8 | 0.00 | 0.00 | 0.00 | 35 | 1007.7 |
| 20260504195250 | 26 | 240 | 22.5 | 40.2 | 0.00 | 0.00 | 0.00 | 34 | 1007.7 |
| 20260504194146 | 26 | 243 | 16.1 | 35.4 | 0.00 | 0.00 | 0.00 | 34 | 1007.7 |
| 20260504193718 | 26 | 229 | 20.9 | 40.2 | 0.00 | 0.00 | 0.00 | 34 | 1007.7 |
| 20260504192826 | 26 | 213 | 20.9 | 40.2 | 0.00 | 0.00 | 0.00 | 34 | 1007.7 |
| 20260504192146 | 26 | 231 | 9.7 | 35.4 | 0.00 | 0.00 | 0.00 | 34 | 1008.1 |
| 20260504191506 | 26 | 244 | 16.1 | 32.2 | 0.00 | 0.00 | 0.00 | 35 | 1008.1 |
| 20260504190826 | 25 | 252 | 14.5 | 37.0 | 0.00 | 0.00 | 0.00 | 34 | 1008.1 |
| 20260504190146 | 25 | 259 | 17.7 | 32.2 | 0.00 | 0.00 | 0.00 | 34 | 1008.1 |
| 20260504185506 | 25 | 220 | 20.9 | 35.4 | 0.00 | 0.00 | 0.00 | 34 | 1008.1 |
| 20260504184826 | 25 | 232 | 12.9 | 41.8 | 0.00 | 0.00 | 0.00 | 35 | 1008.1 |
| 20260504184146 | 25 | 244 | 12.9 | 40.2 | 0.00 | 0.00 | 0.00 | 34 | 1008.1 |
| 20260504183506 | 25 | 258 | 14.5 | 41.8 | 0.00 | 0.00 | 0.00 | 34 | 1008.4 |
| 20260504182826 | 25 | 243 | 16.1 | 41.8 | 0.00 | 0.00 | 0.00 | 36 | 1008.4 |
| 20260504182608 | 25 | 234 | 14.5 | 33.8 | 0.00 | 0.00 | 0.00 | 36 | 1008.4 |
| 20260504181506 | 25 | 252 | 14.5 | 35.4 | 0.00 | 0.00 | 0.00 | 35 | 1008.4 |
| 20260504181036 | 25 | 245 | 16.1 | 38.6 | 0.00 | 0.00 | 0.00 | 35 | 1008.4 |
| 20260504180146 | 25 | 245 | 14.5 | 35.4 | 0.00 | 0.00 | 0.00 | 36 | 1008.8 |
| 20260504175718 | 25 | 233 | 20.9 | 48.3 | 0.00 | 0.00 | 0.00 | 36 | 1008.4 |
| 20260504174826 | 25 | 259 | 12.9 | 37.0 | 0.00 | 0.00 | 0.00 | 36 | 1008.4 |
| 20260504174146 | 24 | 227 | 17.7 | 35.4 | 0.00 | 0.00 | 0.00 | 36 | 1008.8 |
| 20260504173506 | 24 | 226 | 22.5 | 35.4 | 0.00 | 0.00 | 0.00 | 36 | 1008.8 |
| 20260504173035 | 24 | 244 | 9.7 | 38.6 | 0.00 | 0.00 | 0.00 | 37 | 1008.8 |
| 20260504172146 | 24 | 232 | 19.3 | 38.6 | 0.00 | 0.00 | 0.00 | 37 | 1008.8 |
| 20260504171716 | 23 | 236 | 20.9 | 38.6 | 0.00 | 0.00 | 0.00 | 38 | 1008.8 |
| 20260504171250 | 23 | 252 | 14.5 | 37.0 | 0.00 | 0.00 | 0.00 | 37 | 1008.8 |
| 20260504170146 | 23 | 234 | 16.1 | 35.4 | 0.00 | 0.00 | 0.00 | 37 | 1009.1 |
| 20260504160358 | 22 | 247 | 12.9 | 32.2 | 0.00 | 0.00 | 0.00 | 39 | 1009.8 |
| 20260504150146 | 21 | 248 | 11.3 | 30.6 | 0.00 | 0.00 | 0.00 | 42 | 1010.2 |
| 20260504140826 | 20 | 252 | 9.7 | 27.4 | 0.00 | 0.00 | 0.00 | 43 | 1010.5 |
| 20260504140146 | 19 | 250 | 9.7 | 22.5 | 0.00 | 0.00 | 0.00 | 46 | 1010.5 |
| 20260504130146 | 17 | 236 | 11.3 | 20.9 | 0.00 | 0.00 | 0.00 | 51 | 1010.5 |
| 20260504120146 | 16 | 277 | 4.8 | 16.1 | 0.00 | 0.00 | 0.00 | 56 | 1010.5 |
| 20260504110146 | 16 | 252 | 4.8 | 14.5 | 0.00 | 0.00 | 0.00 | 57 | 1009.8 |
| 20260504100358 | 16 | 249 | 4.8 | 14.5 | 0.00 | 0.00 | 0.00 | 59 | 1010.2 |